Time,TemperatureF,DewpointF,PressureIn,WindDirection,WindDirectionDegrees,WindSpeedMPH,WindSpeedGustMPH,Humidity,HourlyPrecipIn,Conditions,Clouds,dailyrainin,SolarRadiationWatts/m^2,SoftwareType,DateUTC
2013-05-08 00:00:00,29.0,-99.9,44.89,WNW,288,4.0,12.0,-999,-99.99,,,0.01,0.000000,,2013-05-08 07:00:00,
2013-05-08 00:52:00,29.0,-99.9,44.89,North,-999,-999.0,-999.0,-999,-99.99,,,0.01,,,2013-05-08 07:52:00,
2013-05-08 01:00:00,29.0,-99.9,-100.00,North,-999,-999.0,-999.0,-999,-99.99,,,0.01,,,2013-05-08 08:00:00,
2013-05-08 01:52:00,29.0,-99.9,-100.00,North,-999,-999.0,-999.0,-999,-99.99,,,0.01,,,2013-05-08 08:52:00,
2013-05-08 02:00:00,29.0,-99.9,44.89,North,-999,-999.0,-999.0,-999,-99.99,,,0.01,,,2013-05-08 09:00:00,
2013-05-08 03:00:00,28.0,-99.9,44.89,West,264,2.0,9.0,-999,-99.99,,,0.01,0.000000,,2013-05-08 10:00:00,
2013-05-08 04:00:00,27.0,-99.9,44.89,West,265,1.0,7.0,-999,-99.99,,,0.01,0.000000,,2013-05-08 11:00:00,
2013-05-08 05:00:00,29.0,-99.9,44.89,West,272,1.0,6.0,-999,-99.99,,,0.01,0.000000,,2013-05-08 12:00:00,
2013-05-08 06:00:00,29.0,-99.9,44.89,WNW,285,2.0,8.0,-999,-99.99,,,0.01,0.300000,,2013-05-08 13:00:00,
2013-05-08 07:00:00,32.0,-99.9,44.89,WNW,303,2.0,8.0,-999,-99.99,,,0.01,2.100000,,2013-05-08 14:00:00,
2013-05-08 08:00:00,35.0,-99.9,44.89,ENE,58,1.0,5.0,-999,-99.99,,,-99.99,20.200001,,2013-05-08 15:00:00,
2013-05-08 09:00:00,35.0,-99.9,44.89,North,351,2.0,8.0,-999,-99.99,,,-99.99,29.600000,,2013-05-08 16:00:00,
2013-05-08 10:00:00,38.0,-99.9,44.89,North,357,2.0,7.0,-999,-99.99,,,0.02,40.299999,,2013-05-08 17:00:00,
2013-05-08 11:00:00,38.0,-99.9,44.89,North,359,2.0,7.0,-999,-99.99,,,0.02,47.000000,,2013-05-08 18:00:00,
2013-05-08 12:00:00,39.0,-99.9,44.89,NNE,19,2.0,6.0,-999,-99.99,,,0.01,30.799999,,2013-05-08 19:00:00,
2013-05-08 13:00:00,39.0,-99.9,44.89,North,3,2.0,9.0,-999,-99.99,,,0.01,40.299999,,2013-05-08 20:00:00,
2013-05-08 14:00:00,41.0,-99.9,44.89,NNW,329,3.0,8.0,-999,-99.99,,,0.01,45.799999,,2013-05-08 21:00:00,
2013-05-08 15:00:00,40.0,-99.9,44.89,North,351,2.0,6.0,-999,-99.99,,,0.01,24.400000,,2013-05-08 22:00:00,
2013-05-08 16:00:00,41.0,-99.9,44.89,NW,316,2.0,7.0,-999,-99.99,,,0.01,21.100000,,2013-05-08 23:00:00,
2013-05-08 16:42:00,41.0,-99.9,-100.00,NW,316,2.0,7.0,-999,-99.99,,,0.01,21.100000,,2013-05-08 23:42:00,
2013-05-08 16:53:00,41.0,-99.9,44.89,NW,316,2.0,7.0,-999,-99.99,,,0.01,21.100000,,2013-05-08 23:53:00,
2013-05-08 18:00:00,38.0,-99.9,44.89,NNW,338,1.0,6.0,-999,-99.99,,,0.01,5.500000,,2013-05-09 01:00:00,
2013-05-08 18:42:00,38.0,-99.9,-100.00,NNW,338,1.0,6.0,-999,-99.99,,,0.01,5.500000,,2013-05-09 01:42:00,
2013-05-08 18:53:00,38.0,-99.9,44.89,NNW,338,1.0,6.0,-999,-99.99,,,0.01,5.500000,,2013-05-09 01:53:00,
2013-05-08 19:00:00,36.0,-99.9,44.89,West,275,1.0,5.0,-999,-99.99,,,0.01,2.400000,,2013-05-09 02:00:00,
2013-05-08 20:00:00,-999.0,-99.9,44.89,WNW,283,1.0,7.0,-999,-99.99,,,-99.99,0.000000,,2013-05-09 03:00:00,
2013-05-08 21:00:00,36.0,-99.9,44.89,WNW,283,2.0,8.0,-999,-99.99,,,0.00,0.000000,,2013-05-09 04:00:00,
2013-05-08 23:00:00,34.0,-99.9,44.89,NE,36,1.0,4.0,-999,-99.99,,,0.00,0.000000,,2013-05-09 06:00:00,